Location: Munkebjergskolens Observatorium
(55.3864°N, 10.3987°E)
Time: 22:11:13
(UTC+01:00)

DELTA 1 DEB - Pass Details

Date: 05 December 2023
Orbit: 783 x 826 km, 98.9° (Epoch: 04 March)

Event Time Altitude Azimuth Distance (km) Brightness Sun altitude
Rises 07:14:09 0° 17° (NNE) 3,368 ? -9.5°
Reaches altitude 10° 07:16:31 10° 19° (NNE) 2,436 ? -9.2°
Maximum altitude 07:21:56 78° 106° (ESE) 852 ? -8.5°
Drops below altitude 10° 07:27:19 10° 193° (SSW) 2,429 ? -7.8°
Sets 07:29:40 0° 195° (SSW) 3,357 ? -7.5°
